Stations météo

réclame
Mon MeteoGroup
Cozzo Spadaro, Italie (16480): Température de l'air & dewpoint: 12.10.2017 11:00:00 - 18.10.2017 11:00:00 (CEST)Cozzo Spadaro, Italie (16480): Vitesse du vent: 12.10.2017 11:00:00 - 18.10.2017 11:00:00 (CEST)Cozzo Spadaro, Italie (16480): Direction du vent: 12.10.2017 11:00:00 - 18.10.2017 11:00:00 (CEST)Cozzo Spadaro, Italie (16480): reduced air pressure: 12.10.2017 11:00:00 - 18.10.2017 11:00:00 (CEST)Cozzo Spadaro, Italie (16480): visibility: 12.10.2017 11:00:00 - 18.10.2017 11:00:00 (CEST)Cozzo Spadaro, Italie (16480): Ensoleillement: 12.10.2017 11:00:00 - 18.10.2017 11:00:00 (CEST)
Date & Time tt [°C] td [°C] ff [km/h] ff [knt] dd ppp [hPa] vv [km] sd [min]
18.10.2017 11:00:00 21,0 18,0 4 2 W 1019,8 20 60
18.10.2017 10:00:00 20,8 18,5 0 0 N 1019,9 20 60
18.10.2017 09:00:00 20,0 18,8 0 0 N 1019,7 20 36
18.10.2017 08:00:00 17,6 16,8 0 0 N 1019,4 20 0
18.10.2017 07:00:00 - - - - - - - -
18.10.2017 06:00:00 - - - - - - - -
18.10.2017 05:00:00 - - - - - - - -
18.10.2017 04:00:00 - - - - - - - -
18.10.2017 03:00:00 - - - - - - - -
18.10.2017 02:00:00 - - - - - - - -
18.10.2017 01:00:00 - - - - - - - -
18.10.2017 00:00:00 - - - - - - - -
17.10.2017 23:00:00 - - - - - - - -
17.10.2017 22:00:00 - - - - - - - -
17.10.2017 21:00:00 - - - - - - - -
17.10.2017 20:00:00 19,6 17,6 0 0 N 1022,1 20 -
17.10.2017 19:00:00 20,0 17,6 2 1 W 1022,1 20 0
17.10.2017 18:00:00 21,0 17,4 4 2 WSW 1022,1 25 60
17.10.2017 17:00:00 21,8 18,0 5 3 SW 1022,0 25 60
17.10.2017 16:00:00 22,4 18,2 8 4 SW 1022,8 25 60
17.10.2017 15:00:00 22,6 18,0 8 4 SW 1023,0 25 60
17.10.2017 14:00:00 22,4 18,0 8 4 SSW 1023,4 25 60
17.10.2017 13:00:00 22,6 18,2 8 4 SW 1024,0 20 60
17.10.2017 12:00:00 23,0 18,8 8 4 SW 1024,8 25 60
17.10.2017 11:00:00 22,6 19,0 4 2 ESE 1024,8 25 60
17.10.2017 10:00:00 22,2 19,5 0 0 N 1024,6 25 60
17.10.2017 09:00:00 20,2 19,4 0 0 N 1024,1 18 36
17.10.2017 08:00:00 18,0 18,0 0 0 N 1024,1 25 0
17.10.2017 07:00:00 - - - - - - - -
17.10.2017 06:00:00 - - - - - - - -
17.10.2017 05:00:00 - - - - - - - -
17.10.2017 04:00:00 - - - - - - - -
17.10.2017 03:00:00 - - - - - - - -
17.10.2017 02:00:00 - - - - - - - -
17.10.2017 01:00:00 - - - - - - - -
17.10.2017 00:00:00 - - - - - - - -
16.10.2017 23:00:00 - - - - - - - -
16.10.2017 22:00:00 - - - - - - - -
16.10.2017 21:00:00 - - - - - - - -
16.10.2017 20:00:00 20,4 18,7 0 0 N 1025,1 18 0
16.10.2017 19:00:00 20,8 18,5 0 0 N 1024,9 20 0
16.10.2017 18:00:00 21,4 18,8 0 0 N 1024,9 25 60
16.10.2017 17:00:00 22,8 19,6 5 3 E 1024,9 25 60
16.10.2017 16:00:00 23,2 19,5 9 5 E 1025,1 25 60
16.10.2017 15:00:00 23,4 19,8 11 6 E 1025,3 25 60
16.10.2017 14:00:00 23,4 20,0 11 6 E 1025,5 25 60
16.10.2017 13:00:00 23,0 20,0 11 6 E 1026,0 25 60
16.10.2017 12:00:00 23,0 20,0 8 4 ENE 1026,0 25 60
16.10.2017 11:00:00 22,4 19,6 9 5 ENE 1025,1 25 60
16.10.2017 10:00:00 21,6 19,2 9 5 NE 1025,1 25 60
16.10.2017 09:00:00 20,4 18,5 8 4 NNE 1024,7 25 42
16.10.2017 08:00:00 17,6 16,5 9 5 NNE 1024,5 25 0
16.10.2017 07:00:00 - - - - - - - -
16.10.2017 06:00:00 - - - - - - - -
16.10.2017 05:00:00 - - - - - - - -
16.10.2017 04:00:00 - - - - - - - -
16.10.2017 03:00:00 - - - - - - - -
16.10.2017 02:00:00 - - - - - - - -
16.10.2017 01:00:00 - - - - - - - -
16.10.2017 00:00:00 - - - - - - - -
15.10.2017 23:00:00 - - - - - - - -
15.10.2017 22:00:00 - - - - - - - -
15.10.2017 21:00:00 - - - - - - - -
15.10.2017 20:00:00 - - - - - - - -
15.10.2017 19:00:00 - - - - - - - -
15.10.2017 18:00:00 - - - - - - - -
15.10.2017 17:00:00 - - - - - - - -
15.10.2017 16:00:00 - - - - - - - -
15.10.2017 15:00:00 - - - - - - - -
15.10.2017 14:00:00 - - - - - - - -
15.10.2017 13:00:00 - - - - - - - -
15.10.2017 12:00:00 - - - - - - - -
15.10.2017 11:00:00 - - - - - - - -
15.10.2017 10:00:00 - - - - - - - -
15.10.2017 09:00:00 - - - - - - - -
15.10.2017 08:00:00 - - - - - - - -
15.10.2017 07:00:00 - - - - - - - -
15.10.2017 06:00:00 - - - - - - - -
15.10.2017 05:00:00 - - - - - - - -
15.10.2017 04:00:00 - - - - - - - -
15.10.2017 03:00:00 - - - - - - - -
15.10.2017 02:00:00 - - - - - - - -
15.10.2017 01:00:00 - - - - - - - -
15.10.2017 00:00:00 - - - - - - - -
14.10.2017 23:00:00 - - - - - - - -
14.10.2017 22:00:00 - - - - - - - -
14.10.2017 21:00:00 - - - - - - - -
14.10.2017 20:00:00 20,0 18,0 4 2 NW 1024,0 25 -
14.10.2017 19:00:00 20,8 18,2 2 1 WNW 1023,8 25 -
14.10.2017 18:00:00 21,8 17,8 4 2 W 1023,9 25 60
14.10.2017 17:00:00 22,6 18,0 0 0 N 1023,9 25 60
14.10.2017 16:00:00 22,8 18,1 4 2 E 1024,0 25 60
14.10.2017 15:00:00 23,0 18,3 9 5 E 1024,0 25 60
14.10.2017 14:00:00 23,0 18,8 13 7 ENE 1025,0 25 60
14.10.2017 13:00:00 22,6 18,2 13 7 ENE 1024,8 25 60
14.10.2017 12:00:00 22,2 18,0 11 6 NE 1024,8 25 60
14.10.2017 11:00:00 23,0 18,8 11 6 NE 1024,8 25 60
14.10.2017 10:00:00 21,2 18,0 8 4 NE 1024,7 25 60
14.10.2017 09:00:00 20,0 17,2 2 1 N 1023,9 25 36
14.10.2017 08:00:00 17,6 16,6 4 2 NNW 1023,4 25 0
14.10.2017 07:00:00 - - - - - - - -
14.10.2017 06:00:00 - - - - - - - -
14.10.2017 05:00:00 - - - - - - - -
14.10.2017 04:00:00 - - - - - - - -
14.10.2017 03:00:00 - - - - - - - -
14.10.2017 02:00:00 - - - - - - - -
14.10.2017 01:00:00 - - - - - - - -
14.10.2017 00:00:00 - - - - - - - -
13.10.2017 23:00:00 - - - - - - - -
13.10.2017 22:00:00 - - - - - - - -
13.10.2017 21:00:00 - - - - - - - -
13.10.2017 20:00:00 20,4 17,6 0 0 N 1023,0 20 -
13.10.2017 19:00:00 21,6 18,6 0 0 N 1022,8 20 -
13.10.2017 18:00:00 21,6 18,6 2 1 SE 1022,7 25 60
13.10.2017 17:00:00 22,4 19,0 8 4 ESE 1022,7 25 60
13.10.2017 16:00:00 22,8 18,5 9 5 E 1023,0 25 60
13.10.2017 15:00:00 23,0 18,3 11 6 E 1023,3 25 60
13.10.2017 14:00:00 23,0 18,5 11 6 ENE 1023,9 25 60
13.10.2017 13:00:00 22,8 18,5 15 8 ENE 1024,0 25 60
13.10.2017 12:00:00 22,8 18,5 13 7 NE 1024,1 25 60
13.10.2017 11:00:00 22,4 17,1 5 3 NE 1024,1 25 60
13.10.2017 10:00:00 21,8 17,0 2 1 NE 1024,1 20 60
13.10.2017 09:00:00 20,0 16,4 0 0 N 1024,0 25 54
13.10.2017 08:00:00 18,8 15,9 0 0 N 1023,5 25 0
13.10.2017 07:00:00 - - - - - - - -
13.10.2017 06:00:00 - - - - - - - -
13.10.2017 05:00:00 - - - - - - - -
13.10.2017 04:00:00 - - - - - - - -
13.10.2017 03:00:00 - - - - - - - -
13.10.2017 02:00:00 - - - - - - - -
13.10.2017 01:00:00 - - - - - - - -
13.10.2017 00:00:00 - - - - - - - -
12.10.2017 23:00:00 - - - - - - - -
12.10.2017 22:00:00 - - - - - - - -
12.10.2017 21:00:00 - - - - - - - -
12.10.2017 20:00:00 20,2 17,6 2 1 NE 1023,6 20 -
12.10.2017 19:00:00 20,4 16,8 5 3 E 1023,0 20 0
12.10.2017 18:00:00 21,0 16,8 8 4 E 1023,0 25 60
12.10.2017 17:00:00 22,0 17,4 9 5 ESE 1023,0 25 60
12.10.2017 16:00:00 23,0 19,0 15 8 E 1023,0 25 60
12.10.2017 15:00:00 23,0 19,0 13 7 ENE 1023,7 25 60
12.10.2017 14:00:00 23,0 18,8 13 7 ENE 1024,9 25 60
12.10.2017 13:00:00 23,0 18,5 13 7 NE 1023,9 25 60
12.10.2017 12:00:00 23,0 18,5 15 8 NE 1023,7 25 60
12.10.2017 11:00:00 22,6 19,6 16 9 NE 1023,5 25 60

tt = Température de l'air
td = dewpoint
ff = Vitesse du vent
dd = Direction du vent
ppp = reduced air pressure
vv = visibility
sd = Ensoleillement

stations d'obs. à proximité